Location: Salluit
(62.2046°N, 75.6437°W)
Time: 22:11:12
(UTC-04:00)

SL-21 R/B - Visible Passes

Search period start: 29 August 2014 00:00
Search period end: 08 September 2014 00:00
Orbit: 293 x 329 km, 78.9° (Epoch: 29 August)

Date Brightness Start Highest point End Pass type
(mag) Time Alt. Az. Time Alt. Az. Time Alt. Az.
29 Aug 7.7 04:30:02 10° NNE 04:30:47 11° NE 04:31:32 10° ENE visible
29 Aug 7.4 22:29:24 10° WNW 22:30:38 13° NW 22:31:53 10° NNW visible
30 Aug 7.2 04:42:23 10° N 04:44:03 16° NE 04:45:43 10° E visible
30 Aug 4.8 21:08:49 10° SW 21:11:18 47° WNW 21:13:48 10° NNE visible
31 Aug 6.6 04:54:58 10° N 04:57:07 24° NE 04:59:14 10° ESE visible
31 Aug 6.2 21:21:55 10° WSW 21:24:11 27° WNW 21:26:27 10° N visible
01 Sep 7.1 21:35:06 10° W 21:36:58 18° NW 21:38:50 10° N visible
02 Sep 7.7 03:49:26 10° NNE 03:50:15 11° NE 03:51:04 10° ENE visible
02 Sep 7.5 21:48:28 10° WNW 21:49:39 12° NW 21:50:50 10° NNW visible
03 Sep 7.2 04:01:14 10° N 04:02:55 16° NE 04:04:35 10° E visible
04 Sep 6.4 04:13:14 10° N 04:15:22 24° NE 04:17:30 10° ESE visible
05 Sep 5.2 04:25:13 10° NNW 04:27:37 38° ENE 04:30:01 10° SE visible
05 Sep 7.0 20:52:20 10° W 20:54:13 18° NW 20:56:06 10° N visible
06 Sep 7.5 03:06:36 10° NNE 03:07:21 11° NE 03:08:05 10° ENE visible
06 Sep 3.8 04:37:08 10° NNW 04:39:40 71° ENE 04:42:11 10° SSE visible
06 Sep 7.3 21:05:04 10° WNW 21:06:18 13° NW 21:07:32 10° NNW visible
07 Sep 7.0 03:17:46 10° N 03:19:25 15° NE 03:21:03 10° E visible
07 Sep 3.5 04:49:00 10° NNW 04:51:30 60° WSW 04:54:00 10° S visible
